Regional Weather Roundup
Issued by NWS

Home | Current Version | Previous Version | Graphics & Text | Print | Product List | Glossary On
Versions: 1 2 3 4 5 6 7 8 9 10 11 12 13 14 15 16 17 18 19 20 21 22 23 24 25 26 27 28 29 30 31 32 33 34 35 36 37 38 39 40 41 42 43 44 45 46 47 48 49 50
000
ASUS43 KMKX 221911
RWRWI

WISCONSIN REGIONAL WEATHER ROUNDUP
NATIONAL WEATHER SERVICE MILWAUKEE/SULLIVAN WI
200 PM CDT MON MAY 22 2017

NOTE: "FAIR" INDICATES FEW OR NO CLOUDS BELOW 12,000 FEET WITH NO
SIGNIFICANT WEATHER AND/OR OBSTRUCTIONS TO VISIBILITY.

WIZ001-002-006>008-014>016-023>028-222000-
NORTHWEST WISCONSIN

CITY           SKY/WX    TMP DP  RH WIND       PRES   REMARKS
SUPERIOR ARPT  NOT AVBL
ASHLAND        CLOUDY    50  45  83 SW14      29.79R
HAYWARD        CLOUDY    54  42  64 SW12G17   29.80F
SIREN          CLOUDY    56  42  58 W14       29.82F
CUMBERLAND     CLOUDY    54  41  62 W13       29.82S
RICE LAKE      CLOUDY    57  42  58 W14G20    29.84R
CHETEK         CLOUDY    59  43  56 W14G21    29.82S
LADYSMITH      CLOUDY    57  43  59 W10G17    29.83S
EAU CLAIRE     MOSUNNY   64  42  44 W13G21    29.81F
MENOMONIE      MOSUNNY   63  44  49 W13G21    29.83S
NEW RICHMOND   PTSUNNY   60  42  50 NW13G18   29.83F
OSCEOLA        CLOUDY    60  44  57 W9        29.86F
$$

WIZ003>005-009-010-017-018-222000-
NORTH CENTRAL WISCONSIN

CITY           SKY/WX    TMP DP  RH WIND       PRES   REMARKS
MANITOWISH WTR CLOUDY    51  42  71 W14       29.78S
ARBOR VITAE    CLOUDY    52  45  77 W9        29.78S
WOODRUFF       CLOUDY    52  45  77 W9        29.78S
RHINELANDER    CLOUDY    56  41  57 W13G21    29.79F
EAGLE RIVER    CLOUDY    52  39  63 W8G17     29.78F
LAND O LAKES   CLOUDY    53  40  62 W13G18    29.79S
PHILLIPS       CLOUDY    53  41  65 SW10G16   29.79S
TOMAHAWK       CLOUDY    55  42  60 W8        29.80S
MEDFORD        CLOUDY    58  42  56 SW15G25   29.81S
MERRILL        PTSUNNY   59  42  53 W14G23    29.80F
$$

WIZ029-030-035-036-043>047-222000-
CENTRAL WISCONSIN

CITY           SKY/WX    TMP DP  RH WIND       PRES   REMARKS
WAUSAU         PTSUNNY   60  42  51 SW15G23   29.80S
MOSINEE        PTSUNNY   63  43  48 W17G24    29.82F
MARSHFIELD     PTSUNNY   63  42  46 SW12      29.80F
STEVENS POINT  PTSUNNY   63  42  45 SW14G24   29.82F
WAUPACA        MOSUNNY   68  41  36 SW16      29.82F
WAUTOMA        MOSUNNY   68  47  46 SW15G23   29.83F
WISC RAPIDS    MOSUNNY   68  44  42 W14G31    29.82F
CAMP DOUGLAS   MOSUNNY   68  46  45 SW9G20    29.83F
$$

WIZ011>013-019>022-031-037>040-048>050-222000-
NORTHEAST WISCONSIN

CITY           SKY/WX    TMP DP  RH WIND       PRES   REMARKS
ANTIGO         PTSUNNY   57  43  59 SW14G21   29.81S
SHAWANO        PTSUNNY   66  43  43 W10G17    29.82F
OCONTO         PTSUNNY   64  42  45 W13G21    29.81F
STURGEON BAY   PTSUNNY   62  44  51 SW12G21   29.84F
GREEN BAY      PTSUNNY   64  49  57 SW13      29.83F
MANITOWOC      CLOUDY    66  46  48 SW12G18   29.85F
APPLETON       NOT AVBL
CLINTONVILLE   MOSUNNY   64  41  42 SW13      29.82F
OSHKOSH        MOSUNNY   66  46  48 SW13G23   29.83F
$$

WIZ032>034-041-042-053>061-222000-
SOUTHWEST WISCONSIN

CITY           SKY/WX    TMP DP  RH WIND       PRES   REMARKS
LA CROSSE      SUNNY     70  49  47 S13       29.83F
SPARTA         SUNNY     67  46  46 W6        29.84F
VIROQUA        MOSUNNY   65  47  51 MISG      29.87S
BOSCOBEL       SUNNY     65  53  65 SW8       29.88F
PRAIRIE DU CHI MOSUNNY   64  53  68 S3        29.87F
PLATTEVILLE    PTSUNNY   63  54  71 S10       29.90F
$$

WIZ056-057-062-063-064-067-068-222000-
SOUTH CENTRAL WISCONSIN

CITY           SKY/WX    TMP DP  RH WIND       PRES   REMARKS
REEDSBURG      PTSUNNY   63  51  65 SW8       29.87F
BARABOO/DELLS  PTSUNNY   62  50  63 SW9G16    29.87F
LONE ROCK      MOSUNNY   60  51  72 S9        29.89F
MINERAL POINT  CLOUDY    63  54  72 S9        29.89F
MADISON        LGT RAIN  57  50  77 S9        29.90F
MIDDLETON      CLOUDY    58  51  78 SW8       29.90F
WATERTOWN      DRIZZLE   58  51  76 SW8G16    29.90F
MONROE         PTSUNNY   59  50  72 S9        29.92F
JANESVILLE     CLOUDY    63  48  59 W9        29.92F
$$

WIZ051-052-058>065-066-070>072-222000-
SOUTHEAST WISCONSIN

CITY           SKY/WX    TMP DP  RH WIND       PRES   REMARKS
MILWAUKEE      LGT RAIN  65  48  54 W17G23    29.93F
WAUKESHA       CLOUDY    61  45  55 SW12G23   29.95S
MILWAUKEE/TIMM PTSUNNY   61  46  59 SW13G24   29.92F
RACINE         MOSUNNY   67  46  47 SW16G23   29.94F
KENOSHA        MOSUNNY   69  49  48 W21G26    29.93F
FOND DU LAC    SUNNY     66  46  48 SW20G26   29.85F
SHEBOYGAN      MOSUNNY   67  50  54 SW16G26   29.85F
WEST BEND      CLOUDY    63  46  55 SW17G24   29.88F
JUNEAU         CLOUDY    59  50  71 S21       29.90F
$$

LSZ147-162-222000-
LAKE SUPERIOR

STATION/POSITION TIME  TEMP    WIND        PRES    WAVE
                       AIR SEA DIR/SP/G            HT/PER
                 (UTC) (F)     (DEG/KT/KT) (MB)    (FT/S)
W MID LAKE BUOY  1750   41 37  230/ 12/ 12 1007.9R   2/ 4
DEVILS ISLAND    1900   46     240/ 19/ 20 1008.2R
SAXON HARBOR     1840   54     210/  7/ 12 1008.5R
$$

LMZ867-665-643>646-222000-
LAKE MICHIGAN

STATION/POSITION TIME  TEMP    WIND        PRES    WAVE
                       AIR SEA DIR/SP/G            HT/PER
                 (UTC) (F)     (DEG/KT/KT) (MB)    (FT/S)
CHAMBERS ISLAND  1840   57     170/  8/ 13 1009.5F
N MID LAKE BUOY  1850   42 39  190/ 14/ 17 1011.4S   2/ 5
NORTHPORT PIER   1840   60     220/  9/ 17 1010.2R
KEWAUNEE LAKESHO 1848   63     230/ 13/ 18 1010.5F
SHEBOYGAN LAKESH 1900   50     180/ 12/ 14 1011.2F
PORT WASHINGTON  1830   68     240/ 12/ 21 1012.9F
ATWATER BUOY     1809   60     230/ 16/ 21 1013.2F
MILWAUKEE LAKESH 1850   62     240/ 17/ 23   N/A
S MID LAKE BUOY  1750   49 45  180/ 12/ 14 1015.3F   2/ 3
KENOSHA   LAKESH 1900   68     240/ 11/ 23 1013.2
$$

TC  - TEMPERATURE IN CELSIUS
VSB - VISIBILITY IN STATUTE MILES
WCI - WIND CHILL INDEX
HX  - HEAT INDEX





USA.gov is the U.S. government's official web portal to all federal, state and local government web resources and services.